Location: Asni�res
(49.1337°N, 2.3555°E)
Time: 04:17:01
(UTC+00:00)

Cosmos 1455 Rocket - Pass Details

Date: 16 October 2021
Orbit: 604 x 630 km, 82.5° (Epoch: 29 November)

Event Time Altitude Azimuth Distance (km) Brightness Sun altitude
Rises 18:08:01 0° 169° (S) 2,880 6.4 -12.1°
Reaches altitude 10° 18:10:18 10° 163° (SSE) 1,984 5.5 -12.5°
Maximum altitude 18:14:26 42° 93° (E) 896 3.4 -13.2°
Drops below altitude 10° 18:18:38 10° 22° (NNE) 2,013 5.5 -13.9°
Sets 18:20:58 0° 16° (NNE) 2,928 6.4 -14.3°
